owner,sensor,date,latitude,longitude,relative_humidity,qcFlag 
COMPS,ioos:station:USF.COMPS:C10:1,2015-01-01T00:05:00Z,27.1690,-82.9260,89.69,1111122 
COMPS,ioos:station:USF.COMPS:C10:1,2015-01-01T00:35:00Z,27.1690,-82.9260,89.84,1111122 
COMPS,ioos:station:USF.COMPS:C10:1,2015-01-01T01:05:00Z,27.1690,-82.9260,90.58,1111122 
COMPS,ioos:station:USF.COMPS:C10:1,2015-01-01T01:35:00Z,27.1690,-82.9260,91.62,1111122 
COMPS,ioos:station:USF.COMPS:C10:1,2015-01-01T02:05:00Z,27.1690,-82.9260,92.08,1111122 
COMPS,ioos:station:USF.COMPS:C10:1,2015-01-01T02:35:00Z,27.1690,-82.9260,92.46,1111122 
COMPS,ioos:station:USF.COMPS:C10:1,2015-01-01T03:05:00Z,27.1690,-82.9260,93.18,1111122 
COMPS,ioos:station:USF.COMPS:C10:1,2015-01-01T03:35:00Z,27.1690,-82.9260,92.96,1111122 
COMPS,ioos:station:USF.COMPS:C10:1,2015-01-01T04:05:00Z,27.1690,-82.9260,93.53,1111122 
COMPS,ioos:station:USF.COMPS:C10:1,2015-01-01T04:35:00Z,27.1690,-82.9260,93.49,1111122 
COMPS,ioos:station:USF.COMPS:C10:1,2015-01-01T05:05:00Z,27.1690,-82.9260,93.86,1111122 
COMPS,ioos:station:USF.COMPS:C10:1,2015-01-01T05:35:00Z,27.1690,-82.9260,94.15,1111122 
COMPS,ioos:station:USF.COMPS:C10:1,2015-01-01T06:05:00Z,27.1690,-82.9260,95.41,1111122 
COMPS,ioos:station:USF.COMPS:C10:1,2015-01-01T06:35:00Z,27.1690,-82.9260,96.19,1111122 
COMPS,ioos:station:USF.COMPS:C10:1,2015-01-01T07:05:00Z,27.1690,-82.9260,96.96,1111122 
COMPS,ioos:station:USF.COMPS:C10:1,2015-01-01T07:35:00Z,27.1690,-82.9260,96.87,1111122 
COMPS,ioos:station:USF.COMPS:C10:1,2015-01-01T08:05:00Z,27.1690,-82.9260,97.66,1111122 
COMPS,ioos:station:USF.COMPS:C10:1,2015-01-01T08:35:00Z,27.1690,-82.9260,97.77,1111122 
COMPS,ioos:station:USF.COMPS:C10:1,2015-01-01T10:05:00Z,27.1690,-82.9260,96.34,1111122 
COMPS,ioos:station:USF.COMPS:C10:1,2015-01-01T10:35:00Z,27.1690,-82.9260,96.53,1111122 
COMPS,ioos:station:USF.COMPS:C10:1,2015-01-01T11:05:00Z,27.1690,-82.9260,96.66,1111122 
COMPS,ioos:station:USF.COMPS:C10:1,2015-01-01T11:35:00Z,27.1690,-82.9260,97.66,1111122 
COMPS,ioos:station:USF.COMPS:C10:1,2015-01-01T12:05:00Z,27.1690,-82.9260,97.71,1111122 
COMPS,ioos:station:USF.COMPS:C10:1,2015-01-01T12:35:00Z,27.1690,-82.9260,97.04,1111122 
COMPS,ioos:station:USF.COMPS:C10:1,2015-01-01T13:05:00Z,27.1690,-82.9260,96.51,1111122 
COMPS,ioos:station:USF.COMPS:C10:1,2015-01-01T13:35:00Z,27.1690,-82.9260,95.66,1111122 
COMPS,ioos:station:USF.COMPS:C10:1,2015-01-01T14:05:00Z,27.1690,-82.9260,95.4,1111122 
COMPS,ioos:station:USF.COMPS:C10:1,2015-01-01T14:35:00Z,27.1690,-82.9260,95.74,1111122 
COMPS,ioos:station:USF.COMPS:C10:1,2015-01-01T15:05:00Z,27.1690,-82.9260,93.84,1111122 
COMPS,ioos:station:USF.COMPS:C10:1,2015-01-01T15:35:00Z,27.1690,-82.9260,92.97,1111122 
COMPS,ioos:station:USF.COMPS:C10:1,2015-01-01T16:05:00Z,27.1690,-82.9260,93.94,1111122 
COMPS,ioos:station:USF.COMPS:C10:1,2015-01-01T16:35:00Z,27.1690,-82.9260,93.97,1111122 
COMPS,ioos:station:USF.COMPS:C10:1,2015-01-01T17:05:00Z,27.1690,-82.9260,93.94,1111122 
COMPS,ioos:station:USF.COMPS:C10:1,2015-01-01T17:35:00Z,27.1690,-82.9260,94.91,1111122 
COMPS,ioos:station:USF.COMPS:C10:1,2015-01-01T18:05:00Z,27.1690,-82.9260,95.15,1111122 
COMPS,ioos:station:USF.COMPS:C10:1,2015-01-01T18:35:00Z,27.1690,-82.9260,94.68,1111122 
COMPS,ioos:station:USF.COMPS:C10:1,2015-01-01T19:05:00Z,27.1690,-82.9260,94.65,1111122 
COMPS,ioos:station:USF.COMPS:C10:1,2015-01-01T19:35:00Z,27.1690,-82.9260,93.91,1111122 
COMPS,ioos:station:USF.COMPS:C10:1,2015-01-01T21:05:00Z,27.1690,-82.9260,91.29,1111122 
COMPS,ioos:station:USF.COMPS:C10:1,2015-01-01T21:35:00Z,27.1690,-82.9260,90.34,1111122 
COMPS,ioos:station:USF.COMPS:C10:1,2015-01-01T22:05:00Z,27.1690,-82.9260,90.79,1111122 
COMPS,ioos:station:USF.COMPS:C10:1,2015-01-01T22:35:00Z,27.1690,-82.9260,89.77,1111122 
COMPS,ioos:station:USF.COMPS:C10:1,2015-01-01T23:05:00Z,27.1690,-82.9260,90.55,1111122 
COMPS,ioos:station:USF.COMPS:C10:1,2015-01-01T23:35:00Z,27.1690,-82.9260,91.68,1111122 
COMPS,ioos:station:USF.COMPS:C10:1,2015-01-02T00:05:00Z,27.1690,-82.9260,91.39,1111122 
COMPS,ioos:station:USF.COMPS:C10:1,2015-01-02T00:35:00Z,27.1690,-82.9260,91.46,1111122 
COMPS,ioos:station:USF.COMPS:C10:1,2015-01-02T01:05:00Z,27.1690,-82.9260,91.65,1111122 
COMPS,ioos:station:USF.COMPS:C10:1,2015-01-02T01:35:00Z,27.1690,-82.9260,91.94,1111122 
COMPS,ioos:station:USF.COMPS:C10:1,2015-01-02T03:05:00Z,27.1690,-82.9260,93.35,1111122 
COMPS,ioos:station:USF.COMPS:C10:1,2015-01-02T03:35:00Z,27.1690,-82.9260,94.31,1111122 
COMPS,ioos:station:USF.COMPS:C10:1,2015-01-02T05:05:00Z,27.1690,-82.9260,95.19,1111122 
COMPS,ioos:station:USF.COMPS:C10:1,2015-01-02T05:35:00Z,27.1690,-82.9260,95.02,1111122 
COMPS,ioos:station:USF.COMPS:C10:1,2015-01-02T06:05:00Z,27.1690,-82.9260,94.44,1111122 
COMPS,ioos:station:USF.COMPS:C10:1,2015-01-02T06:35:00Z,27.1690,-82.9260,94.04,1111122 
COMPS,ioos:station:USF.COMPS:C10:1,2015-01-02T07:05:00Z,27.1690,-82.9260,94.48,1111122 
COMPS,ioos:station:USF.COMPS:C10:1,2015-01-02T07:35:00Z,27.1690,-82.9260,95.38,1111122 
COMPS,ioos:station:USF.COMPS:C10:1,2015-01-02T08:05:00Z,27.1690,-82.9260,96.53,1111122 
COMPS,ioos:station:USF.COMPS:C10:1,2015-01-02T08:35:00Z,27.1690,-82.9260,98.64,1111122 
COMPS,ioos:station:USF.COMPS:C10:1,2015-01-02T09:05:00Z,27.1690,-82.9260,99.26,1111122 
COMPS,ioos:station:USF.COMPS:C10:1,2015-01-02T09:35:00Z,27.1690,-82.9260,99.43,1111122 
COMPS,ioos:station:USF.COMPS:C10:1,2015-01-02T10:05:00Z,27.1690,-82.9260,99.55,1111122 
COMPS,ioos:station:USF.COMPS:C10:1,2015-01-02T10:35:00Z,27.1690,-82.9260,99.6,1111122 
COMPS,ioos:station:USF.COMPS:C10:1,2015-01-02T11:05:00Z,27.1690,-82.9260,99.63,1111122 
COMPS,ioos:station:USF.COMPS:C10:1,2015-01-02T11:35:00Z,27.1690,-82.9260,99.66,1111122 
COMPS,ioos:station:USF.COMPS:C10:1,2015-01-02T12:05:00Z,27.1690,-82.9260,99.71,1111122 
COMPS,ioos:station:USF.COMPS:C10:1,2015-01-02T12:35:00Z,27.1690,-82.9260,99.75,1111122 
COMPS,ioos:station:USF.COMPS:C10:1,2015-01-02T13:05:00Z,27.1690,-82.9260,99.75,1111122 
COMPS,ioos:station:USF.COMPS:C10:1,2015-01-02T13:35:00Z,27.1690,-82.9260,99.72,1111122 
COMPS,ioos:station:USF.COMPS:C10:1,2015-01-02T14:05:00Z,27.1690,-82.9260,99.63,1111122 
COMPS,ioos:station:USF.COMPS:C10:1,2015-01-02T14:35:00Z,27.1690,-82.9260,99.52,1111122 
COMPS,ioos:station:USF.COMPS:C10:1,2015-01-02T15:05:00Z,27.1690,-82.9260,99.37,1111122 
COMPS,ioos:station:USF.COMPS:C10:1,2015-01-02T15:35:00Z,27.1690,-82.9260,99.36,1111122 
COMPS,ioos:station:USF.COMPS:C10:1,2015-01-02T16:05:00Z,27.1690,-82.9260,99.22,1111122 
COMPS,ioos:station:USF.COMPS:C10:1,2015-01-02T16:35:00Z,27.1690,-82.9260,99.24,1111122 
COMPS,ioos:station:USF.COMPS:C10:1,2015-01-02T17:05:00Z,27.1690,-82.9260,99.4,1111122 
COMPS,ioos:station:USF.COMPS:C10:1,2015-01-02T17:35:00Z,27.1690,-82.9260,99.46,1111122 
COMPS,ioos:station:USF.COMPS:C10:1,2015-01-02T18:05:00Z,27.1690,-82.9260,99.49,1111122 
COMPS,ioos:station:USF.COMPS:C10:1,2015-01-02T18:35:00Z,27.1690,-82.9260,99.27,1111122 
COMPS,ioos:station:USF.COMPS:C10:1,2015-01-02T19:05:00Z,27.1690,-82.9260,98.77,1111122 
COMPS,ioos:station:USF.COMPS:C10:1,2015-01-02T19:35:00Z,27.1690,-82.9260,98.79,1111122 
COMPS,ioos:station:USF.COMPS:C10:1,2015-01-02T20:05:00Z,27.1690,-82.9260,98.59,1111122 
COMPS,ioos:station:USF.COMPS:C10:1,2015-01-02T20:35:00Z,27.1690,-82.9260,97.94,1111122 
COMPS,ioos:station:USF.COMPS:C10:1,2015-01-02T21:05:00Z,27.1690,-82.9260,97.03,1111122 
COMPS,ioos:station:USF.COMPS:C10:1,2015-01-02T21:35:00Z,27.1690,-82.9260,96.74,1111122 
COMPS,ioos:station:USF.COMPS:C10:1,2015-01-02T22:05:00Z,27.1690,-82.9260,96.75,1111122 
COMPS,ioos:station:USF.COMPS:C10:1,2015-01-02T22:35:00Z,27.1690,-82.9260,97.39,1111122 
COMPS,ioos:station:USF.COMPS:C10:1,2015-01-02T23:05:00Z,27.1690,-82.9260,95.92,1111122 
COMPS,ioos:station:USF.COMPS:C10:1,2015-01-02T23:35:00Z,27.1690,-82.9260,95.15,1111122 
COMPS,ioos:station:USF.COMPS:C10:1,2015-01-03T00:05:00Z,27.1690,-82.9260,93.51,1111122 
COMPS,ioos:station:USF.COMPS:C10:1,2015-01-03T00:35:00Z,27.1690,-82.9260,93.23,1111122 
COMPS,ioos:station:USF.COMPS:C10:1,2015-01-03T01:05:00Z,27.1690,-82.9260,93.38,1111122 
COMPS,ioos:station:USF.COMPS:C10:1,2015-01-03T01:35:00Z,27.1690,-82.9260,92.83,1111122 
COMPS,ioos:station:USF.COMPS:C10:1,2015-01-03T02:05:00Z,27.1690,-82.9260,90.47,1111122 
COMPS,ioos:station:USF.COMPS:C10:1,2015-01-03T02:35:00Z,27.1690,-82.9260,90.41,1111122 
COMPS,ioos:station:USF.COMPS:C10:1,2015-01-03T03:05:00Z,27.1690,-82.9260,91.55,1111122 
COMPS,ioos:station:USF.COMPS:C10:1,2015-01-03T03:35:00Z,27.1690,-82.9260,92.4,1111122 
COMPS,ioos:station:USF.COMPS:C10:1,2015-01-03T05:05:00Z,27.1690,-82.9260,95.9,1111122 
COMPS,ioos:station:USF.COMPS:C10:1,2015-01-03T05:35:00Z,27.1690,-82.9260,96.7,1111122 
COMPS,ioos:station:USF.COMPS:C10:1,2015-01-03T06:05:00Z,27.1690,-82.9260,97.09,1111122 
COMPS,ioos:station:USF.COMPS:C10:1,2015-01-03T06:35:00Z,27.1690,-82.9260,97.26,1111122 
COMPS,ioos:station:USF.COMPS:C10:1,2015-01-03T07:05:00Z,27.1690,-82.9260,97.35,1111122 
COMPS,ioos:station:USF.COMPS:C10:1,2015-01-03T07:35:00Z,27.1690,-82.9260,97.23,1111122 
COMPS,ioos:station:USF.COMPS:C10:1,2015-01-03T08:05:00Z,27.1690,-82.9260,96.91,1111122 
COMPS,ioos:station:USF.COMPS:C10:1,2015-01-03T08:35:00Z,27.1690,-82.9260,97.03,1111122 
COMPS,ioos:station:USF.COMPS:C10:1,2015-01-03T09:05:00Z,27.1690,-82.9260,97.22,1111122 
COMPS,ioos:station:USF.COMPS:C10:1,2015-01-03T09:35:00Z,27.1690,-82.9260,97.6,1111122 
COMPS,ioos:station:USF.COMPS:C10:1,2015-01-03T10:05:00Z,27.1690,-82.9260,97.5,1111122 
COMPS,ioos:station:USF.COMPS:C10:1,2015-01-03T10:35:00Z,27.1690,-82.9260,97.59,1111122 
COMPS,ioos:station:USF.COMPS:C10:1,2015-01-03T11:05:00Z,27.1690,-82.9260,97.78,1111122 
COMPS,ioos:station:USF.COMPS:C10:1,2015-01-03T11:35:00Z,27.1690,-82.9260,96.88,1111122 
COMPS,ioos:station:USF.COMPS:C10:1,2015-01-03T12:05:00Z,27.1690,-82.9260,96.82,1111122 
COMPS,ioos:station:USF.COMPS:C10:1,2015-01-03T12:35:00Z,27.1690,-82.9260,96.84,1111122 
COMPS,ioos:station:USF.COMPS:C10:1,2015-01-03T13:05:00Z,27.1690,-82.9260,96.33,1111122 
COMPS,ioos:station:USF.COMPS:C10:1,2015-01-03T13:35:00Z,27.1690,-82.9260,94.51,1111122 
COMPS,ioos:station:USF.COMPS:C10:1,2015-01-03T14:05:00Z,27.1690,-82.9260,93.86,1111122 
COMPS,ioos:station:USF.COMPS:C10:1,2015-01-03T14:35:00Z,27.1690,-82.9260,94.05,1111122 
COMPS,ioos:station:USF.COMPS:C10:1,2015-01-03T15:05:00Z,27.1690,-82.9260,94.12,1111122 
COMPS,ioos:station:USF.COMPS:C10:1,2015-01-03T15:35:00Z,27.1690,-82.9260,94.23,1111122 
COMPS,ioos:station:USF.COMPS:C10:1,2015-01-03T16:05:00Z,27.1690,-82.9260,94.45,1111122 
COMPS,ioos:station:USF.COMPS:C10:1,2015-01-03T16:35:00Z,27.1690,-82.9260,94.38,1111122 
COMPS,ioos:station:USF.COMPS:C10:1,2015-01-03T17:05:00Z,27.1690,-82.9260,93.86,1111122 
COMPS,ioos:station:USF.COMPS:C10:1,2015-01-03T17:35:00Z,27.1690,-82.9260,93.46,1111122 
COMPS,ioos:station:USF.COMPS:C10:1,2015-01-03T18:05:00Z,27.1690,-82.9260,93.24,1111122 
COMPS,ioos:station:USF.COMPS:C10:1,2015-01-03T18:35:00Z,27.1690,-82.9260,93.37,1111122 
COMPS,ioos:station:USF.COMPS:C10:1,2015-01-03T19:05:00Z,27.1690,-82.9260,93.49,1111122 
COMPS,ioos:station:USF.COMPS:C10:1,2015-01-03T19:35:00Z,27.1690,-82.9260,93.45,1111122 
COMPS,ioos:station:USF.COMPS:C10:1,2015-01-03T20:05:00Z,27.1690,-82.9260,92.89,1111122 
COMPS,ioos:station:USF.COMPS:C10:1,2015-01-03T20:35:00Z,27.1690,-82.9260,93.25,1111122 
COMPS,ioos:station:USF.COMPS:C10:1,2015-01-03T21:05:00Z,27.1690,-82.9260,93.17,1111122 
COMPS,ioos:station:USF.COMPS:C10:1,2015-01-03T21:35:00Z,27.1690,-82.9260,92.38,1111122 
COMPS,ioos:station:USF.COMPS:C10:1,2015-01-03T22:05:00Z,27.1690,-82.9260,91.38,1111122 
COMPS,ioos:station:USF.COMPS:C10:1,2015-01-03T22:35:00Z,27.1690,-82.9260,93.04,1111122 
COMPS,ioos:station:USF.COMPS:C10:1,2015-01-03T23:05:00Z,27.1690,-82.9260,92.78,1111122 
COMPS,ioos:station:USF.COMPS:C10:1,2015-01-03T23:35:00Z,27.1690,-82.9260,92.15,1111122 
COMPS,ioos:station:USF.COMPS:C10:1,2015-01-04T00:05:00Z,27.1690,-82.9260,91.61,1111122 
COMPS,ioos:station:USF.COMPS:C10:1,2015-01-04T00:35:00Z,27.1690,-82.9260,91.42,1111122 
COMPS,ioos:station:USF.COMPS:C10:1,2015-01-04T01:05:00Z,27.1690,-82.9260,93.23,1111122 
COMPS,ioos:station:USF.COMPS:C10:1,2015-01-04T01:35:00Z,27.1690,-82.9260,92.76,1111122 
COMPS,ioos:station:USF.COMPS:C10:1,2015-01-04T02:05:00Z,27.1690,-82.9260,93.02,1111122 
COMPS,ioos:station:USF.COMPS:C10:1,2015-01-04T02:35:00Z,27.1690,-82.9260,93.09,1111122 
COMPS,ioos:station:USF.COMPS:C10:1,2015-01-04T03:05:00Z,27.1690,-82.9260,93.9,1111122 
COMPS,ioos:station:USF.COMPS:C10:1,2015-01-04T03:35:00Z,27.1690,-82.9260,92.15,1111122 
COMPS,ioos:station:USF.COMPS:C10:1,2015-01-04T05:05:00Z,27.1690,-82.9260,95.48,1111122 
COMPS,ioos:station:USF.COMPS:C10:1,2015-01-04T05:35:00Z,27.1690,-82.9260,95.93,1111122 
COMPS,ioos:station:USF.COMPS:C10:1,2015-01-04T06:05:00Z,27.1690,-82.9260,94.85,1111122 
COMPS,ioos:station:USF.COMPS:C10:1,2015-01-04T06:35:00Z,27.1690,-82.9260,94.99,1111122 
COMPS,ioos:station:USF.COMPS:C10:1,2015-01-04T07:05:00Z,27.1690,-82.9260,94.85,1111122 
COMPS,ioos:station:USF.COMPS:C10:1,2015-01-04T07:35:00Z,27.1690,-82.9260,94.83,1111122 
COMPS,ioos:station:USF.COMPS:C10:1,2015-01-04T08:05:00Z,27.1690,-82.9260,95.76,1111122 
COMPS,ioos:station:USF.COMPS:C10:1,2015-01-04T08:35:00Z,27.1690,-82.9260,96.13,1111122 
COMPS,ioos:station:USF.COMPS:C10:1,2015-01-04T09:05:00Z,27.1690,-82.9260,96.64,1111122 
COMPS,ioos:station:USF.COMPS:C10:1,2015-01-04T09:35:00Z,27.1690,-82.9260,96.81,1111122 
COMPS,ioos:station:USF.COMPS:C10:1,2015-01-04T10:05:00Z,27.1690,-82.9260,96.67,1111122 
COMPS,ioos:station:USF.COMPS:C10:1,2015-01-04T10:35:00Z,27.1690,-82.9260,96.39,1111122 
COMPS,ioos:station:USF.COMPS:C10:1,2015-01-04T11:05:00Z,27.1690,-82.9260,96.58,1111122 
COMPS,ioos:station:USF.COMPS:C10:1,2015-01-04T11:35:00Z,27.1690,-82.9260,96.44,1111122 
COMPS,ioos:station:USF.COMPS:C10:1,2015-01-04T12:05:00Z,27.1690,-82.9260,96.67,1111122 
COMPS,ioos:station:USF.COMPS:C10:1,2015-01-04T12:35:00Z,27.1690,-82.9260,96.62,1111122 
COMPS,ioos:station:USF.COMPS:C10:1,2015-01-04T13:05:00Z,27.1690,-82.9260,95.79,1111122 
COMPS,ioos:station:USF.COMPS:C10:1,2015-01-04T13:35:00Z,27.1690,-82.9260,94.9,1111122 
COMPS,ioos:station:USF.COMPS:C10:1,2015-01-04T14:05:00Z,27.1690,-82.9260,93.84,1111122 
COMPS,ioos:station:USF.COMPS:C10:1,2015-01-04T14:35:00Z,27.1690,-82.9260,93.5,1111122 
COMPS,ioos:station:USF.COMPS:C10:1,2015-01-04T15:05:00Z,27.1690,-82.9260,93.67,1111122 
COMPS,ioos:station:USF.COMPS:C10:1,2015-01-04T15:35:00Z,27.1690,-82.9260,93.69,1111122 
COMPS,ioos:station:USF.COMPS:C10:1,2015-01-04T16:05:00Z,27.1690,-82.9260,93.92,1111122 
COMPS,ioos:station:USF.COMPS:C10:1,2015-01-04T16:35:00Z,27.1690,-82.9260,93.87,1111122 
COMPS,ioos:station:USF.COMPS:C10:1,2015-01-04T17:05:00Z,27.1690,-82.9260,93.99,1111122 
COMPS,ioos:station:USF.COMPS:C10:1,2015-01-04T17:35:00Z,27.1690,-82.9260,94.28,1111122 
COMPS,ioos:station:USF.COMPS:C10:1,2015-01-04T18:05:00Z,27.1690,-82.9260,94.45,1111122 
COMPS,ioos:station:USF.COMPS:C10:1,2015-01-04T18:35:00Z,27.1690,-82.9260,94.53,1111122 
COMPS,ioos:station:USF.COMPS:C10:1,2015-01-04T19:05:00Z,27.1690,-82.9260,94.44,1111122 
COMPS,ioos:station:USF.COMPS:C10:1,2015-01-04T19:35:00Z,27.1690,-82.9260,94.81,1111122 
COMPS,ioos:station:USF.COMPS:C10:1,2015-01-04T20:05:00Z,27.1690,-82.9260,94.45,1111122 
COMPS,ioos:station:USF.COMPS:C10:1,2015-01-04T20:35:00Z,27.1690,-82.9260,93.5,1111122 
COMPS,ioos:station:USF.COMPS:C10:1,2015-01-04T21:05:00Z,27.1690,-82.9260,92.96,1111122 
COMPS,ioos:station:USF.COMPS:C10:1,2015-01-04T21:35:00Z,27.1690,-82.9260,92.33,1111122 
COMPS,ioos:station:USF.COMPS:C10:1,2015-01-04T22:05:00Z,27.1690,-82.9260,92.91,1111122 
COMPS,ioos:station:USF.COMPS:C10:1,2015-01-04T22:35:00Z,27.1690,-82.9260,93.26,1111122 
COMPS,ioos:station:USF.COMPS:C10:1,2015-01-04T23:05:00Z,27.1690,-82.9260,96.23,1111122 
COMPS,ioos:station:USF.COMPS:C10:1,2015-01-04T23:35:00Z,27.1690,-82.9260,97.45,1111122 
COMPS,ioos:station:USF.COMPS:C10:1,2015-01-05T00:05:00Z,27.1690,-82.9260,97.87,1111122 
COMPS,ioos:station:USF.COMPS:C10:1,2015-01-05T00:35:00Z,27.1690,-82.9260,97.94,1111122 
COMPS,ioos:station:USF.COMPS:C10:1,2015-01-05T01:05:00Z,27.1690,-82.9260,98.0,1111122 
COMPS,ioos:station:USF.COMPS:C10:1,2015-01-05T01:35:00Z,27.1690,-82.9260,98.02,1111122 
COMPS,ioos:station:USF.COMPS:C10:1,2015-01-05T02:05:00Z,27.1690,-82.9260,98.08,1111122 
COMPS,ioos:station:USF.COMPS:C10:1,2015-01-05T02:35:00Z,27.1690,-82.9260,98.25,1111122 
COMPS,ioos:station:USF.COMPS:C10:1,2015-01-05T03:05:00Z,27.1690,-82.9260,97.42,1111122 
COMPS,ioos:station:USF.COMPS:C10:1,2015-01-05T03:35:00Z,27.1690,-82.9260,97.84,1111122 
COMPS,ioos:station:USF.COMPS:C10:1,2015-01-05T05:05:00Z,27.1690,-82.9260,98.43,1111122 
COMPS,ioos:station:USF.COMPS:C10:1,2015-01-05T05:35:00Z,27.1690,-82.9260,98.34,1111122 
COMPS,ioos:station:USF.COMPS:C10:1,2015-01-05T06:05:00Z,27.1690,-82.9260,98.21,1111122 
COMPS,ioos:station:USF.COMPS:C10:1,2015-01-05T06:35:00Z,27.1690,-82.9260,96.87,1111122 
COMPS,ioos:station:USF.COMPS:C10:1,2015-01-05T07:05:00Z,27.1690,-82.9260,96.88,1111122 
COMPS,ioos:station:USF.COMPS:C10:1,2015-01-05T07:35:00Z,27.1690,-82.9260,96.77,1111122 
COMPS,ioos:station:USF.COMPS:C10:1,2015-01-05T08:05:00Z,27.1690,-82.9260,97.39,1111122 
COMPS,ioos:station:USF.COMPS:C10:1,2015-01-05T08:35:00Z,27.1690,-82.9260,97.9,1111122 
COMPS,ioos:station:USF.COMPS:C10:1,2015-01-05T09:05:00Z,27.1690,-82.9260,98.13,1111122 
COMPS,ioos:station:USF.COMPS:C10:1,2015-01-05T09:35:00Z,27.1690,-82.9260,97.48,1111122 
COMPS,ioos:station:USF.COMPS:C10:1,2015-01-05T10:05:00Z,27.1690,-82.9260,96.35,1111122 
COMPS,ioos:station:USF.COMPS:C10:1,2015-01-05T10:35:00Z,27.1690,-82.9260,94.67,1111122 
COMPS,ioos:station:USF.COMPS:C10:1,2015-01-05T11:05:00Z,27.1690,-82.9260,90.39,1111122 
COMPS,ioos:station:USF.COMPS:C10:1,2015-01-05T11:35:00Z,27.1690,-82.9260,91.57,1111122 
COMPS,ioos:station:USF.COMPS:C10:1,2015-01-05T12:05:00Z,27.1690,-82.9260,92.6,1111122 
COMPS,ioos:station:USF.COMPS:C10:1,2015-01-05T12:35:00Z,27.1690,-82.9260,92.73,1111122 
COMPS,ioos:station:USF.COMPS:C10:1,2015-01-05T14:05:00Z,27.1690,-82.9260,94.14,1111122 
COMPS,ioos:station:USF.COMPS:C10:1,2015-01-05T14:35:00Z,27.1690,-82.9260,93.6,1111122 
COMPS,ioos:station:USF.COMPS:C10:1,2015-01-05T15:05:00Z,27.1690,-82.9260,92.0,1111122 
COMPS,ioos:station:USF.COMPS:C10:1,2015-01-05T15:35:00Z,27.1690,-82.9260,92.29,1111122 
COMPS,ioos:station:USF.COMPS:C10:1,2015-01-05T16:05:00Z,27.1690,-82.9260,92.81,1111122 
COMPS,ioos:station:USF.COMPS:C10:1,2015-01-05T16:35:00Z,27.1690,-82.9260,94.84,1111122 
COMPS,ioos:station:USF.COMPS:C10:1,2015-01-05T18:05:00Z,27.1690,-82.9260,88.65,1111122 
COMPS,ioos:station:USF.COMPS:C10:1,2015-01-05T18:35:00Z,27.1690,-82.9260,90.44,1111122 
COMPS,ioos:station:USF.COMPS:C10:1,2015-01-05T19:05:00Z,27.1690,-82.9260,88.94,1111122 
COMPS,ioos:station:USF.COMPS:C10:1,2015-01-05T19:35:00Z,27.1690,-82.9260,88.02,1111122 
COMPS,ioos:station:USF.COMPS:C10:1,2015-01-05T20:05:00Z,27.1690,-82.9260,86.23,1111122 
COMPS,ioos:station:USF.COMPS:C10:1,2015-01-05T20:35:00Z,27.1690,-82.9260,85.36,1111122 
COMPS,ioos:station:USF.COMPS:C10:1,2015-01-05T21:05:00Z,27.1690,-82.9260,80.83,1111122 
COMPS,ioos:station:USF.COMPS:C10:1,2015-01-05T21:35:00Z,27.1690,-82.9260,77.59,1111122 
COMPS,ioos:station:USF.COMPS:C10:1,2015-01-05T22:05:00Z,27.1690,-82.9260,81.79,1111122 
COMPS,ioos:station:USF.COMPS:C10:1,2015-01-05T22:35:00Z,27.1690,-82.9260,80.46,1111122 
COMPS,ioos:station:USF.COMPS:C10:1,2015-01-05T23:05:00Z,27.1690,-82.9260,82.23,1111122 
COMPS,ioos:station:USF.COMPS:C10:1,2015-01-05T23:35:00Z,27.1690,-82.9260,82.1,1111122 
COMPS,ioos:station:USF.COMPS:C10:1,2015-01-06T00:05:00Z,27.1690,-82.9260,83.01,1111122 
COMPS,ioos:station:USF.COMPS:C10:1,2015-01-06T00:35:00Z,27.1690,-82.9260,82.72,1111122 
COMPS,ioos:station:USF.COMPS:C10:1,2015-01-06T01:05:00Z,27.1690,-82.9260,82.84,1111122 
COMPS,ioos:station:USF.COMPS:C10:1,2015-01-06T01:35:00Z,27.1690,-82.9260,82.53,1111122 
COMPS,ioos:station:USF.COMPS:C10:1,2015-01-06T02:05:00Z,27.1690,-82.9260,78.23,1111122 
COMPS,ioos:station:USF.COMPS:C10:1,2015-01-06T02:35:00Z,27.1690,-82.9260,79.46,1111122 
COMPS,ioos:station:USF.COMPS:C10:1,2015-01-06T03:05:00Z,27.1690,-82.9260,77.12,1111122 
COMPS,ioos:station:USF.COMPS:C10:1,2015-01-06T03:35:00Z,27.1690,-82.9260,77.71,1111122 
COMPS,ioos:station:USF.COMPS:C10:1,2015-01-06T05:05:00Z,27.1690,-82.9260,82.26,1111122 
COMPS,ioos:station:USF.COMPS:C10:1,2015-01-06T05:35:00Z,27.1690,-82.9260,82.86,1111122 
COMPS,ioos:station:USF.COMPS:C10:1,2015-01-06T06:05:00Z,27.1690,-82.9260,81.22,1111122 
COMPS,ioos:station:USF.COMPS:C10:1,2015-01-06T06:35:00Z,27.1690,-82.9260,78.07,1111122 
COMPS,ioos:station:USF.COMPS:C10:1,2015-01-06T07:05:00Z,27.1690,-82.9260,79.3,1111122 
COMPS,ioos:station:USF.COMPS:C10:1,2015-01-06T07:35:00Z,27.1690,-82.9260,79.91,1111122 
COMPS,ioos:station:USF.COMPS:C10:1,2015-01-06T08:05:00Z,27.1690,-82.9260,79.65,1111122 
COMPS,ioos:station:USF.COMPS:C10:1,2015-01-06T08:35:00Z,27.1690,-82.9260,81.06,1111122 
COMPS,ioos:station:USF.COMPS:C10:1,2015-01-06T09:05:00Z,27.1690,-82.9260,81.23,1111122 
COMPS,ioos:station:USF.COMPS:C10:1,2015-01-06T09:35:00Z,27.1690,-82.9260,81.82,1111122 
COMPS,ioos:station:USF.COMPS:C10:1,2015-01-06T10:05:00Z,27.1690,-82.9260,82.72,1111122 
COMPS,ioos:station:USF.COMPS:C10:1,2015-01-06T10:35:00Z,27.1690,-82.9260,82.42,1111122 
COMPS,ioos:station:USF.COMPS:C10:1,2015-01-06T11:05:00Z,27.1690,-82.9260,82.92,1111122 
COMPS,ioos:station:USF.COMPS:C10:1,2015-01-06T11:35:00Z,27.1690,-82.9260,82.61,1111122 
COMPS,ioos:station:USF.COMPS:C10:1,2015-01-06T12:05:00Z,27.1690,-82.9260,83.17,1111122 
COMPS,ioos:station:USF.COMPS:C10:1,2015-01-06T12:35:00Z,27.1690,-82.9260,82.76,1111122 
COMPS,ioos:station:USF.COMPS:C10:1,2015-01-06T13:05:00Z,27.1690,-82.9260,82.32,1111122 
COMPS,ioos:station:USF.COMPS:C10:1,2015-01-06T13:35:00Z,27.1690,-82.9260,81.31,1111122 
COMPS,ioos:station:USF.COMPS:C10:1,2015-01-06T14:05:00Z,27.1690,-82.9260,81.2,1111122 
COMPS,ioos:station:USF.COMPS:C10:1,2015-01-06T14:35:00Z,27.1690,-82.9260,80.95,1111122 
COMPS,ioos:station:USF.COMPS:C10:1,2015-01-06T16:05:00Z,27.1690,-82.9260,80.83,1111122 
COMPS,ioos:station:USF.COMPS:C10:1,2015-01-06T16:35:00Z,27.1690,-82.9260,79.88,1111122 
COMPS,ioos:station:USF.COMPS:C10:1,2015-01-06T17:05:00Z,27.1690,-82.9260,77.45,1111122 
COMPS,ioos:station:USF.COMPS:C10:1,2015-01-06T17:35:00Z,27.1690,-82.9260,79.75,1111122 
COMPS,ioos:station:USF.COMPS:C10:1,2015-01-06T18:05:00Z,27.1690,-82.9260,83.45,1111122 
COMPS,ioos:station:USF.COMPS:C10:1,2015-01-06T18:35:00Z,27.1690,-82.9260,87.63,1111122 
COMPS,ioos:station:USF.COMPS:C10:1,2015-01-06T19:05:00Z,27.1690,-82.9260,86.68,1111122 
COMPS,ioos:station:USF.COMPS:C10:1,2015-01-06T19:35:00Z,27.1690,-82.9260,87.02,1111122 
COMPS,ioos:station:USF.COMPS:C10:1,2015-01-06T22:05:00Z,27.1690,-82.9260,89.29,1111122 
COMPS,ioos:station:USF.COMPS:C10:1,2015-01-06T22:35:00Z,27.1690,-82.9260,89.82,1111122 
COMPS,ioos:station:USF.COMPS:C10:1,2015-01-06T23:05:00Z,27.1690,-82.9260,90.62,1111122 
COMPS,ioos:station:USF.COMPS:C10:1,2015-01-06T23:35:00Z,27.1690,-82.9260,89.75,1111122 
COMPS,ioos:station:USF.COMPS:C10:1,2015-01-07T00:05:00Z,27.1690,-82.9260,87.62,1111122 
COMPS,ioos:station:USF.COMPS:C10:1,2015-01-07T00:35:00Z,27.1690,-82.9260,82.28,1111122 
COMPS,ioos:station:USF.COMPS:C10:1,2015-01-07T01:05:00Z,27.1690,-82.9260,82.59,1111122 
COMPS,ioos:station:USF.COMPS:C10:1,2015-01-07T01:35:00Z,27.1690,-82.9260,81.57,1111122 
COMPS,ioos:station:USF.COMPS:C10:1,2015-01-07T02:05:00Z,27.1690,-82.9260,81.4,1111122 
COMPS,ioos:station:USF.COMPS:C10:1,2015-01-07T02:35:00Z,27.1690,-82.9260,81.5,1111122 
COMPS,ioos:station:USF.COMPS:C10:1,2015-01-07T03:05:00Z,27.1690,-82.9260,81.27,1111122 
COMPS,ioos:station:USF.COMPS:C10:1,2015-01-07T03:35:00Z,27.1690,-82.9260,74.95,1111122 
COMPS,ioos:station:USF.COMPS:C10:1,2015-01-07T04:05:00Z,27.1690,-82.9260,77.63,1111122 
COMPS,ioos:station:USF.COMPS:C10:1,2015-01-07T04:35:00Z,27.1690,-82.9260,77.72,1111122 